Flag for U.S.A. Weather past 2 weeks in Austin, Texas, U.S.A.

Now
79 °F

Clear.


Feels Like: 82 °F
Forecast: 74 / 93 °F
Wind: 8 mph from South

Location: Camp Mabry / Austin City

Current Time: Oct 2, 2014 at 12:30:18 AM

Latest Report: Oct 1, 2014 at 11:51 PM


Visibility: 10 mi

Pressure: 29.80 "Hg

Humidity: 77%

Dew point: 71 °F

Location of AustinLocation

Historic Weather in Austin — Graph

°F

Austin temperature yesterday

Maximum temperature yesterday: 92 °F (at 3:51 PM)
Minimum temperature yesterday: 76 °F (at 12:51 AM)
Average temperature yesterday: 82 °F

Past Weeks' High & Low Weather Summary

 TemperatureHumidityPressure
High92 °F (Oct 1, 3:51 PM)100% (Sep 18, 1:51 AM)30.16 "Hg (Sep 18, 1:51 AM)
Low60 °F (Sep 24, 6:51 AM)37% (Sep 24, 3:51 PM)29.72 "Hg (Oct 1, 4:51 PM)
Average77 °F72%29.96 "Hg
* Reported Sep 16 10:51 PM — Oct 1 10:51 PM, Austin, Weather by CustomWeather, © 2014

Note: Actual official high and low records may vary slightly from our data, if they occured in-between our weather recording intervals... More about our weather records

Advertising

Austin weather history for previous 24 hours

 ConditionsComfort  
Time TempWeatherWind HumidityBarometerVisibility
10:51 PM
Oct 1
81 °FClear.8 mph69%29.80 "Hg10 mi
9:51 PM82 °FPassing clouds.8 mph67%29.78 "Hg10 mi
8:51 PM84 °FClear.3 mph63%29.76 "Hg10 mi
7:51 PM85 °FSunny.3 mph57%29.74 "Hg10 mi
6:51 PM87 °FSunny.5 mph51%29.73 "Hg10 mi
5:51 PM89 °FSunny.5 mph48%29.72 "Hg10 mi
4:51 PM90 °FPassing clouds.7 mph48%29.72 "Hg10 mi
3:51 PM92 °FScattered clouds.6 mph47%29.72 "Hg10 mi
2:51 PM90 °FScattered clouds.3 mph50%29.74 "Hg10 mi
1:51 PM90 °FPassing clouds.7 mph52%29.76 "Hg10 mi
12:51 PM88 °FScattered clouds.7 mph57%29.79 "Hg10 mi
11:51 AM85 °FScattered clouds.6 mph63%29.81 "Hg10 mi
10:51 AM83 °FPartly sunny.7 mph68%29.81 "Hg10 mi
9:59 AM78 °FPartly sunny.6 mph76%29.85 "Hg10 mi
8:51 AM77 °FOvercast.5 mph85%29.80 "Hg10 mi
7:51 AM76 °FOvercast.No wind88%29.80 "Hg10 mi
6:51 AM76 °FOvercast.5 mph88%29.78 "Hg10 mi
5:51 AM76 °FOvercast.No wind88%29.78 "Hg10 mi
4:51 AM76 °FMostly cloudy.5 mph88%29.77 "Hg10 mi
3:51 AM76 °FOvercast.6 mph88%29.78 "Hg10 mi
2:51 AM76 °FOvercast.5 mph88%29.78 "Hg10 mi
1:51 AM77 °FOvercast.3 mph88%29.78 "Hg10 mi
12:51 AM76 °FClear.3 mph88%29.77 "Hg10 mi
Weather by CustomWeather, © 2014

See weather overviewHow to use our weather pages